Weather History for Elizabethtown, NC

Change the Weather History Date:

Friday, March 28, 2014

  Actual Average (KILM) Record (KILM)
Temperature  
Mean Temperature 57 °F 58 °F  
Max Temperature 72 °F 70 °F 90 °F (1907)
Min Temperature 42 °F 47 °F 29 °F (1955)
Degree Days  
Heating Degree Days 8 8  
Month to date heating degree days 301  
Since 1 July heating degree days 2230  
Cooling Degree Days 0 1  
Month to date cooling degree days 13  
Year to date cooling degree days 18  
Growing Degree Days 7 (Base 50)    
Moisture  
Dew Point 52 °F    
Average Humidity 81    
Maximum Humidity 100    
Minimum Humidity 52    
Precipitation  
Precipitation 0.08 in 0.13 in 1.20 in (2014)
Month to date precipitation 3.83  
Year to date precipitation 11.21  
Snow  
Snow 0.00 in 0.00 in - ()
Month to date snowfall 0.2  
Since 1 July snowfall 1.7  
Snow Depth -    
Sea Level Pressure  
Sea Level Pressure 30.21 in    
Wind  
Wind Speed 5 mph (SSE)    
Max Wind Speed 16 mph    
Max Gust Speed 22 mph    
Visibility 9 miles    
Events Rain    
T = Trace of Precipitation, MM = Missing Value Source: NWS Daily Summary

Daily Weather History Graph

Daily Weather History Graph

Search for Another Location

Airport:

Trip Planner

Search our weather history database for the weather conditions in past years. The results will help you decide how hot, cold, wet, or windy it might be!

Date:

Astronomy

Mar. 28, 2014 Rise Set
Actual Time 7:06 AM EDT 7:32 PM EDT
Civil Twilight 6:41 AM EDT 7:57 PM EDT
Nautical Twilight 6:12 AM EDT 8:27 PM EDT
Astronomical Twilight 5:41 AM EDT 8:57 PM EDT
Moon 5:31 AM EDT (3/28) 5:31 PM EDT (3/28)
Length of Visible Light 13h 15m
Length of Day
12h 25m
Waning Crescent, 6% of the Moon is Illuminated
Mar 28
Waning Crescent
Mar 30
New
Apr 7
First Quarter
Apr 15
Full
Apr 22
Last Quarter

Hourly Weather History & Observations

Time (EDT) Temp. Windchill Dew Point Humidity Pressure Visibility Wind Dir Wind Speed Gust Speed Precip Events Conditions
12:15 AM 45.7 °F 44.4 °F 36.5 °F 70% 30.32 in 10.0 mi SE 3.5 mph - N/A   Scattered Clouds
12:35 AM 45.5 °F 44.2 °F 36.9 °F 72% 30.30 in 10.0 mi SE 3.5 mph - N/A   Scattered Clouds
12:55 AM 44.6 °F 43.1 °F 36.9 °F 74% 30.30 in 10.0 mi SE 3.5 mph - N/A   Mostly Cloudy
1:15 AM 44.6 °F - 37.0 °F 75% 30.30 in 10.0 mi Calm Calm - N/A   Scattered Clouds
1:35 AM 44.1 °F - 36.9 °F 76% 30.29 in 10.0 mi Calm Calm - N/A   Clear
1:55 AM 42.8 °F - 36.9 °F 80% 30.29 in 10.0 mi Calm Calm - N/A   Clear
2:15 AM 42.4 °F 39.6 °F 36.9 °F 81% 30.29 in 10.0 mi SE 4.6 mph - N/A   Clear
2:35 AM 43.5 °F 41.9 °F 38.3 °F 82% 30.28 in 10.0 mi SE 3.5 mph - N/A   Clear
2:55 AM 43.9 °F 42.3 °F 39.7 °F 85% 30.27 in 10.0 mi SE 3.5 mph - N/A   Clear
3:15 AM 43.7 °F 42.1 °F 39.4 °F 85% 30.27 in 10.0 mi SE 3.5 mph - N/A   Clear
3:35 AM 43.7 °F - 40.3 °F 88% 30.27 in 10.0 mi Calm Calm - N/A   Clear
3:55 AM 43.2 °F - 40.1 °F 89% 30.27 in 10.0 mi Calm Calm - N/A   Clear
4:15 AM 43.2 °F - 40.1 °F 89% 30.26 in 10.0 mi Calm Calm - N/A   Clear
4:35 AM 42.1 °F - 39.4 °F 90% 30.25 in 10.0 mi Calm Calm - N/A   Clear
4:55 AM 42.4 °F - 39.7 °F 90% 30.25 in 10.0 mi Calm Calm - N/A   Clear
5:15 AM 42.4 °F 40.7 °F 40.3 °F 92% 30.25 in 10.0 mi SSE 3.5 mph - N/A   Scattered Clouds
5:35 AM 43.7 °F 42.1 °F 41.9 °F 93% 30.25 in 10.0 mi SE 3.5 mph - N/A   Scattered Clouds
5:55 AM 45.1 °F 42.0 °F 44.1 °F 96% 30.24 in 10.0 mi SE 5.8 mph - N/A   Scattered Clouds
6:15 AM 44.6 °F 41.4 °F 43.5 °F 96% 30.24 in 10.0 mi SE 5.8 mph - N/A   Scattered Clouds
6:35 AM 45.7 °F 42.7 °F 44.8 °F 97% 30.24 in 7.0 mi SE 5.8 mph - N/A   Mostly Cloudy
6:55 AM 46.6 °F - 46.2 °F 99% 30.24 in 10.0 mi SE 4.6 mph - N/A   Mostly Cloudy
7:15 AM 46.4 °F 44.3 °F 45.7 °F 97% 30.24 in 10.0 mi SSE 4.6 mph - N/A   Mostly Cloudy
7:35 AM 47.7 °F - 47.3 °F 99% 30.24 in 7.0 mi SSE 5.8 mph - N/A   Scattered Clouds
8:15 AM 48.9 °F - 48.4 °F 98% 30.24 in 10.0 mi SSE 4.6 mph - N/A   Clear
8:35 AM 52.5 °F - 50.4 °F 92% 30.24 in 10.0 mi SE 5.8 mph - N/A   Clear
8:55 AM 56.3 °F - 51.4 °F 84% 30.24 in 10.0 mi SSE 5.8 mph - N/A   Clear
9:15 AM 59.5 °F - 51.4 °F 75% 30.24 in 10.0 mi South 6.9 mph - N/A   Clear
9:35 AM 62.8 °F - 52.0 °F 68% 30.24 in 10.0 mi South 8.1 mph - N/A   Clear
9:55 AM 65.1 °F - 52.2 °F 63% 30.25 in 10.0 mi South 6.9 mph - N/A   Clear
10:15 AM 66.4 °F - 52.7 °F 61% 30.26 in 10.0 mi South 10.4 mph 17.3 mph N/A   Clear
10:35 AM 68.0 °F - 53.1 °F 59% 30.25 in 10.0 mi South 12.7 mph 18.4 mph N/A   Scattered Clouds
10:55 AM 68.9 °F - 53.6 °F 58% 30.24 in 10.0 mi South 11.5 mph 19.6 mph N/A   Scattered Clouds
11:15 AM 69.6 °F - 54.3 °F 58% 30.24 in 10.0 mi South 15.0 mph 21.9 mph N/A   Clear
11:35 AM 70.2 °F - 54.0 °F 56% 30.23 in 10.0 mi South 13.8 mph - N/A   Clear
11:55 AM 71.4 °F - 53.8 °F 54% 30.22 in 10.0 mi South 12.7 mph 19.6 mph N/A   Clear
12:15 PM 72.5 °F - 53.8 °F 52% 30.22 in 10.0 mi South 15.0 mph 21.9 mph N/A   Scattered Clouds
12:35 PM 71.8 °F - 54.1 °F 54% 30.21 in 10.0 mi South 12.7 mph 18.4 mph N/A   Mostly Cloudy
12:55 PM 71.6 °F - 54.3 °F 54% 30.20 in 10.0 mi South 13.8 mph 18.4 mph N/A   Overcast
1:15 PM 72.1 °F - 54.7 °F 54% 30.19 in 10.0 mi South 16.1 mph 20.7 mph N/A   Overcast
1:35 PM 70.7 °F - 54.7 °F 57% 30.19 in 10.0 mi South 11.5 mph 20.7 mph N/A   Overcast
1:55 PM 71.6 °F - 55.4 °F 57% 30.18 in 10.0 mi South 13.8 mph 20.7 mph N/A   Overcast
2:15 PM 70.5 °F - 55.8 °F 59% 30.18 in 10.0 mi SSE 15.0 mph 21.9 mph N/A   Overcast
2:35 PM 68.9 °F - 57.2 °F 66% 30.17 in 10.0 mi South 5.8 mph - N/A Rain Rain
2:55 PM 69.8 °F - 57.2 °F 64% 30.16 in 10.0 mi South 9.2 mph 17.3 mph N/A   Overcast
3:15 PM 67.8 °F - 58.5 °F 72% 30.16 in 7.0 mi South 13.8 mph 18.4 mph N/A Rain Rain
3:35 PM 66.2 °F - 60.6 °F 82% 30.16 in 10.0 mi SSE 10.4 mph 18.4 mph N/A Rain Rain
3:55 PM 65.5 °F - 61.7 °F 88% 30.16 in 10.0 mi SSE 9.2 mph 16.1 mph N/A   Overcast
4:15 PM 66.2 °F - 62.4 °F 88% 30.15 in 5.0 mi South 6.9 mph - N/A Rain Rain
4:35 PM 66.4 °F - 61.9 °F 85% 30.15 in 10.0 mi South 6.9 mph - N/A   Mostly Cloudy
4:55 PM 67.1 °F - 61.5 °F 82% 30.14 in 10.0 mi SSE 9.2 mph - N/A   Overcast
5:15 PM 67.3 °F - 60.8 °F 80% 30.14 in 10.0 mi South 10.4 mph - N/A   Overcast
5:35 PM 68.0 °F - 59.2 °F 73% 30.14 in 10.0 mi South 10.4 mph - N/A   Overcast
5:55 PM 67.1 °F - 59.0 °F 75% 30.15 in 10.0 mi SSE 6.9 mph - N/A   Overcast
6:15 PM 66.6 °F - 58.8 °F 76% 30.15 in 10.0 mi South 9.2 mph - N/A   Overcast
6:35 PM 66.2 °F - 59.2 °F 78% 30.15 in 10.0 mi SSE 10.4 mph 16.1 mph N/A   Overcast
6:55 PM 64.4 °F - 60.1 °F 86% 30.15 in 10.0 mi SSE 9.2 mph - N/A   Overcast
7:15 PM 63.9 °F - 60.8 °F 90% 30.15 in 10.0 mi SSE 5.8 mph - N/A   Overcast
7:35 PM 63.5 °F - 61.0 °F 91% 30.15 in 10.0 mi SSE 6.9 mph - N/A   Overcast
7:55 PM 63.0 °F - 61.0 °F 93% 30.15 in 10.0 mi SSE 4.6 mph - N/A   Overcast
8:15 PM 62.8 °F - 61.2 °F 94% 30.15 in 10.0 mi SE 5.8 mph - N/A   Overcast
8:35 PM 62.8 °F - 61.2 °F 94% 30.15 in 10.0 mi SSE 5.8 mph - N/A   Overcast
8:55 PM 62.8 °F - 61.2 °F 94% 30.15 in 10.0 mi SSE 6.9 mph - N/A   Overcast
9:15 PM 62.8 °F - 61.2 °F 94% 30.15 in 10.0 mi SSE 5.8 mph - N/A   Overcast
9:35 PM 62.8 °F - 61.3 °F 95% 30.15 in 10.0 mi SSE 5.8 mph - N/A Rain Light Rain
9:55 PM 62.8 °F - 61.7 °F 96% 30.15 in 7.0 mi South 4.6 mph - N/A Rain Rain
10:15 PM 61.9 °F - 61.3 °F 98% 30.15 in 7.0 mi SSE 3.5 mph - N/A   Drizzle
10:35 PM 61.7 °F - 61.3 °F 99% 30.14 in 7.0 mi SSE 4.6 mph - 0.01 in   Heavy Drizzle
10:55 PM 61.3 °F - 61.3 °F 100% 30.14 in 4.0 mi SE 3.5 mph - 0.03 in Rain Light Rain
11:15 PM 61.2 °F - 61.2 °F 100% 30.14 in 4.0 mi SSE 3.5 mph - 0.02 in Rain Light Rain
11:35 PM 61.2 °F - 61.2 °F 100% 30.13 in 5.0 mi SSE 3.5 mph - 0.03 in Rain Heavy Rain
11:55 PM 61.2 °F - 61.2 °F 100% 30.13 in 5.0 mi SSE 3.5 mph - 0.05 in Rain Light Rain